STARLINK-5210 (54082 NORAD) Tracking and Keplerian Element Data

This shows tracking and keplerian element data for the satellite.

Feedback or suggestion? Click here.




ElementValue
Catalog54082
NameSTARLINK-5210
Epoch Orbit547
Epoch Day325.16668981
Epoch Year2022
RAAN351.7221
Inclination53.2156
Eccentricity0.0003771
Argument of Perigee5.6193
Mean Anonmoly113.6647
Mean Motion15.73164369
Decay Rate0.00030674
L11 54082U 22136AH 22325.16668981 .00030674 00000+0 22246-3 0 9990
L22 54082 53.2156 351.7221 0003771 5.6193 113.6647 15.73164369 5475



Live tracking and technical data element details for STARLINK-5210 (NORAD 54082). STARLINK-5210 can be tracked NOW for your location showing map with azimuth and elevation plus other details from your city location.







IsCatalogInMostPopularTable: catalog: 54082, numindb: 1
Update: records affected: 1



GetName: 54082 STARLINK-5210

Hit Count: updated at: Fri, 09 Dec 2022 18:30:54 GMT